Regional Weather Roundup
Issued by NWS

Home | Current Version | Previous Version | Graphics & Text | Print | Product List | Glossary On
Versions: 1 2 3 4 5 6 7 8 9 10 11 12 13 14 15 16 17 18 19 20 21 22 23 24 25 26 27 28 29 30 31 32 33 34 35 36 37 38 39 40 41 42 43 44 45 46 47 48 49 50
000
ASUS43 KMKX 270000
RWRWI

WISCONSIN REGIONAL WEATHER ROUNDUP
NATIONAL WEATHER SERVICE MILWAUKEE/SULLIVAN WI
700 PM CDT MON SEP 26 2016

NOTE: "FAIR" INDICATES FEW OR NO CLOUDS BELOW 12,000 FEET WITH NO
SIGNIFICANT WEATHER AND/OR OBSTRUCTIONS TO VISIBILITY.

WIZ001-002-006>008-014>016-023>028-270100-
NORTHWEST WISCONSIN

CITY           SKY/WX    TMP DP  RH WIND       PRES   REMARKS
SUPERIOR ARPT  DRIZZLE   53  46  77 W10G24    29.76S
ASHLAND        LGT RAIN  50  47  89 W13       29.72F
6HR MIN TEMP:  50; 6HR MAX TEMP:  53; 6HR PCP:  0.11;

HAYWARD        CLOUDY    55  41  59 W7        29.77F
6HR MIN TEMP:  51; 6HR MAX TEMP:  56; 6HR PCP:  0.05;

SIREN          CLOUDY    59  38  44 W10G22    29.81F
CUMBERLAND     MOCLDY    55  36  47 W17G23    29.82S
RICE LAKE      PTCLDY    58  38  46 W9        29.83S
CHETEK         NOT AVBL
LADYSMITH      CLOUDY    57  41  54 W12       29.81S
EAU CLAIRE     NOT AVBL
MENOMONIE      PTCLDY    61  37  41 W9        29.85F
NEW RICHMOND   CLEAR     58  35  40 W13G20    29.86S
OSCEOLA        CLEAR     60  36  40 W13G22    29.88S
$$

WIZ003>005-009-010-017-018-270100-
NORTH CENTRAL WISCONSIN

CITY           SKY/WX    TMP DP  RH WIND       PRES   REMARKS
MANITOWISH WTR NOT AVBL
ARBOR VITAE    DRIZZLE   52  49  89 W10G16    29.74S
WOODRUFF       DRIZZLE   52  49  89 W10G16    29.74S
RHINELANDER    LGT RAIN  49  47  93 W10       29.76S
6HR MIN TEMP:  49; 6HR MAX TEMP:  57; 6HR PCP:  0.02;

EAGLE RIVER    LGT RAIN  48  44  85 W13G21    29.72F
LAND O LAKES   LGT RAIN  48  46  93 W9G26     29.72F
PHILLIPS       DRIZZLE   52  43  70 W10G22    29.77S
TOMAHAWK       CLOUDY    50  43  76 W5        29.78S
MEDFORD        CLOUDY    55  40  56 W12G20    29.80S
MERRILL        CLOUDY    54  42  65 W10       29.79F
$$

WIZ029-030-035-036-043>047-270100-
CENTRAL WISCONSIN

CITY           SKY/WX    TMP DP  RH WIND       PRES   REMARKS
WAUSAU         CLOUDY    56  40  55 W14G23    29.78F
6HR MIN TEMP:  55; 6HR MAX TEMP:  62; 6HR PCP: TRACE;

MOSINEE        NOT AVBL
MARSHFIELD     CLEAR     55  40  56 W10       29.82F
6HR MIN TEMP:  55; 6HR MAX TEMP:  62;

STEVENS POINT  CLOUDY    56  37  48 W12G26    29.83S
WAUPACA        CLOUDY    61  37  40 W16G24    29.83S
WAUTOMA        PTCLDY    58  40  51 W12       29.85S
6HR MIN TEMP:  58; 6HR MAX TEMP:  65;

WISC RAPIDS    CLEAR     56  41  57 W8        29.85F
6HR MIN TEMP:  56; 6HR MAX TEMP:  64;

CAMP DOUGLAS   NOT AVBL
$$

WIZ011>013-019>022-031-037>040-048>050-270100-
NORTHEAST WISCONSIN

CITY           SKY/WX    TMP DP  RH WIND       PRES   REMARKS
ANTIGO         CLOUDY    51  43  74 W9        29.78F
SHAWANO        CLOUDY    58  41  53 W7        29.79F
OCONTO         NOT AVBL
STURGEON BAY   CLOUDY    57  42  57 W12       29.78R
6HR MIN TEMP:  57; 6HR MAX TEMP:  62;

GREEN BAY      CLOUDY    58  42  55 W6        29.80S
6HR MIN TEMP:  58; 6HR MAX TEMP:  64;

MANITOWOC      NOT AVBL
APPLETON       MOCLDY    57  36  44 W10       29.81S
CLINTONVILLE   NOT AVBL
OSHKOSH        CLOUDY    58  40  51 VRB6      29.83R
6HR MIN TEMP:  58; 6HR MAX TEMP:  64;

$$

WIZ032>034-041-042-053>061-270100-
SOUTHWEST WISCONSIN

CITY           SKY/WX    TMP DP  RH WIND       PRES   REMARKS
LA CROSSE      CLEAR     63  34  33 W12       29.87S
6HR MIN TEMP:  63; 6HR MAX TEMP:  70;

SPARTA         CLEAR     59  40  48 W5        29.88S
VIROQUA        CLEAR     60  32  34 W7        29.89S
BOSCOBEL       CLEAR     65  34  31 W7G17     29.91R
6HR MIN TEMP:  65; 6HR MAX TEMP:  71; 6HR PCP: TRACE;

PRAIRIE DU CHI CLEAR     65  31  27 W12G20    29.91S
PLATTEVILLE    CLEAR     63  35  35 W14G21    29.93S
$$

WIZ056-057-062-063-064-067-068-270100-
SOUTH CENTRAL WISCONSIN

CITY           SKY/WX    TMP DP  RH WIND       PRES   REMARKS
REEDSBURG      NOT AVBL
BARABOO/DELLS  CLEAR     60  35  38 W7        29.88R
LONE ROCK      NOT AVBL
MINERAL POINT  CLEAR     63  32  31 W14G23    29.91S
MADISON        PTCLDY    61  35  37 VRB3      29.87S
6HR MIN TEMP:  61; 6HR MAX TEMP:  66;

MIDDLETON      NOT AVBL
WATERTOWN      CLOUDY    62  35  36 W8        29.86S
MONROE         CLEAR     63  32  31 W17G25    29.92R
JANESVILLE     CLEAR     64  34  32 W10G17    29.90S
$$

WIZ051-052-058>065-066-070>072-270100-
SOUTHEAST WISCONSIN

CITY           SKY/WX    TMP DP  RH WIND       PRES   REMARKS
MILWAUKEE      MOCLDY    65  35  33 W8        29.87S
6HR MIN TEMP:  65; 6HR MAX TEMP:  68;

WAUKESHA       PTCLDY    59  34  38 W12G23    29.88S
MILWAUKEE/TIMM PTCLDY    61  32  33 W8        29.87S
RACINE         PTCLDY    63  34  33 W8G16     29.89S
6HR MIN TEMP:  63; 6HR MAX TEMP:  67;

BURLINGTON     PTCLDY    61  32  33 W7G16     29.89S
KENOSHA        CLEAR     62  35  36 W12       29.90R
6HR MIN TEMP:  62; 6HR MAX TEMP:  68;

FOND DU LAC    MOCLDY    58  39  49 W7        29.85R
6HR MIN TEMP:  57; 6HR MAX TEMP:  65; 6HR PCP: TRACE;

SHEBOYGAN      PTCLDY    59  38  45 W8        29.83S
6HR MIN TEMP:  59; 6HR MAX TEMP:  65; 6HR PCP: TRACE;

WEST BEND      CLEAR     59  34  38 W7        29.85S
JUNEAU         CLEAR     60  36  40 W9G17     29.87S
$$

LSZ147-162-270100-
LAKE SUPERIOR

STATION/POSITION TIME  TEMP    WIND        PRES    WAVE
                       AIR SEA DIR/SP/G            HT/PER
                 (UTC) (F)     (DEG/KT/KT) (MB)    (FT/S)
W MID LAKE BUOY  2250   51 47  250/ 25/ 31 1001.1R   8/ 7
DEVILS ISLAND    2300   54     250/ 32/ 35 1004.0F
SAXON HARBOR     2340   52     200/  9/ 15 1006.1S
$$

LMZ867-665-643>646-270100-
LAKE MICHIGAN

STATION/POSITION TIME  TEMP    WIND        PRES    WAVE
                       AIR SEA DIR/SP/G            HT/PER
                 (UTC) (F)     (DEG/KT/KT) (MB)    (FT/S)
CHAMBERS ISLAND  2300   58     230/ 13/ 22 1007.1
N MID LAKE BUOY  2250   61 67  240/ 29/ 35 1004.6F   7/ 6
NORTHPORT PIER   2300   59     250/  8     1006.8R
KEWAUNEE LAKESHO 2300   61     280/ 11/ 17 1008.2R
SHEBOYGAN LAKESH 2300   63     270/ 13/ 16 1009.6R
PORT WASHINGTON  2340   63     270/  5/  9 1011.5R
ATWATER BUOY     2300   64 54  270/ 12/ 14 1011.1S
MILWAUKEE LAKESH 2310   65     270/ 12/ 16   N/A
S MID LAKE BUOY  2250   67 71  260/ 21/ 27 1011.1R   6/ 5
KENOSHA   LAKESH 2300   67     270/ 14/ 28 1011.9S
$$

TC  - TEMPERATURE IN CELSIUS
VSB - VISIBILITY IN STATUTE MILES
WCI - WIND CHILL INDEX
HX  - HEAT INDEX





USA.gov is the U.S. government's official web portal to all federal, state and local government web resources and services.